OpenBCM V1.13 (Linux)

Packet Radio Mailbox

DB0FHN

[JN59NK Nuernberg]

 Login: GUEST





  
LU9DCE > KEP      05.05.19 00:34l 245 Lines 12052 Bytes #999 (0) @ WW
BID : 23483_LU9DCE
Read: DK3UZ DF7EAV GUEST
Subj: TLE 04 05
Path: DB0FHN<DB0BLO<DB0ERF<DB0RES<ON0AR<GB7CIP<N3HYM<LU9DCE
Sent: 190504/2221Z 23483@LU9DCE.TOR.BA.ARG.SOAM LinBPQ6.0.18

            __    _  _  ___  ____   ___  ____    ____  ____  ____
           (  )  / )( \/ _ \(    \ / __)(  __)  (  _ \(  _ \/ ___)
           / (_/\) \/ (\__  )) D (( (__  ) _)    ) _ ( ) _ (\___ \
           \____/\____/(___/(____/ \___)(____)  (____/(____/(____/
               ESTACION DE PACKET RADIO - BUENOS AIRES (GF05OM)
                   BOLETINES INFORMATIVOS PROGRAMADOS (BIP)
              28.125 USB @ 300 BAUD --- HELLOCODELINUX@GMAIL.COM

+----------------------------------------------------------------------------+
OSCAR 7
1  7530U 74089B   19123.89822109 -.00000045  00000-0  15971-5 0  9996
2  7530 101.7399  92.0366 0012587  75.7270 341.2986 12.53637915 34781
OSCAR 11 (UoSAT 2)
1 14781U 84021B   19124.09149931  .00000050  00000-0  12201-4 0  9994
2 14781  97.6148 150.9568 0010023 107.0546 253.1767 14.83080574892001
OSCAR 19 (LUSAT)
1 20442U 90005G   19124.42108093 -.00000022  00000-0  83621-5 0  9990
2 20442  98.6456  66.5054 0010650 284.8803  75.1201 14.32923596529896
EYESAT A
1 22825U 93061C   19123.95158050 -.00000016 +00000-0 +11584-4 0  9998
2 22825 098.9013 111.5505 0009257 127.6273 232.5750 14.30057114335146
ITAMSAT
1 22826U 93061D   19123.96390437 -.00000005 +00000-0 +15823-4 0  9995
2 22826 098.8953 111.5603 0009903 117.8536 242.3650 14.30390569335365
RADIO ROSTO
1 23439U 94085A   19123.66312768 -.00000021 +00000-0 +61357-3 0  9991
2 23439 064.8157 190.5599 0147021 122.1733 239.3547 11.27567695002707
JAS 2
1 24278U 96046B   19123.92662847 -.00000061 +00000-0 -25402-4 0  9994
2 24278 098.5306 283.5591 0350291 358.8838 001.1485 13.53090593121362
TECHSAT 1B
1 25397U 98043D   19123.79631048 -.00000035 +00000-0 +37564-5 0  9993
2 25397 098.6858 064.5049 0001827 131.5411 228.5924 14.23664354081126
ISS (ZARYA)
1 25544U 98067A   19124.72678771  .00002092  00000-0  40830-4 0  9994
2 25544  51.6424 217.1961 0000909 288.2181 218.0775 15.52629678168500
PCSAT
1 26931U 01043C   19124.40590857 -.00000024  00000-0  22693-4 0  9997
2 26931  67.0495 120.5389 0006194 279.5755  80.4646 14.30540321918494
SAUDISAT 1C
1 27607U 02058C   19124.54407206  .00000014  00000-0  22828-4 0  9993
2 27607  64.5545 187.6292 0082339 265.1389  94.0308 14.75541172880374
CUTE-1
1 27844U 03031E   19124.55577424  .00000042  00000-0  38641-4 0  9990
2 27844  98.6854 133.4416 0010336 155.4737 204.6934 14.22173606821870
CUBESAT XI 4
1 27848U 03031J   19124.53506537  .00000030  00000-0  33628-4 0  9996
2 27848  98.6931 133.9113 0009993 166.3012 193.8439 14.21769206821722
MOZHAYETS 4
1 27939U 03042A   19124.41060982  .00000103  00000-0  27020-4 0  9995
2 27939  98.0319 261.1282 0012432 205.3519 154.7083 14.66773920833907
CUBESAT XI 5
1 28895U 05043F   19124.38900879  .00000099  00000-0  27834-4 0  9991
2 28895  97.9519 268.6911 0017939 131.9252 228.3483 14.63654881720868
CUTE-1.7+APD II
1 32785U 08021C   19123.90029973  .00000196  00000-0  26791-4 0  9996
2 32785  97.5496 125.7758 0014453  58.7307 301.5324 14.88287994596872
DELFI C3
1 32789U 08021G   19123.79978368  .00001001  00000-0  71176-4 0  9991
2 32789  97.4689 174.8419 0010459 283.6350  76.3713 15.06843329600053
SEEDS
1 32791U 08021J   19124.06277774  .00000212  00000-0  26895-4 0  9999
2 32791  97.5290 131.8543 0014280  36.0376 324.1803 14.90788790597310
YUBELEINY
1 32953U 08025A   19124.49303036  .00000020  00000-0  75656-4 0  9997
2 32953  82.5041 172.8741 0018365 225.0235 134.9357 12.43089034496696
PRISM (HITOMI)
1 33493U 09002B   19123.73099782  .00000889  00000-0  83497-4 0  9994
2 33493  98.1232  42.9428 0014698 342.1412  17.9290 14.96605322558276
KKS-1 (KISEKI)
1 33499U 09002H   19123.89814436 +.00000103 +00000-0 +23194-4 0  9995
2 33499 098.3533 321.1377 0009145 000.8319 359.2903 14.75428740552044
SWISSCUBE
1 35932U 09051B   19123.90580792 +.00000108 +00000-0 +35518-4 0  9998
2 35932 098.5831 288.5503 0006587 311.9931 048.0704 14.56269626510075
BEESAT
1 35933U 09051C   19123.91161552 +.00000085 +00000-0 +30183-4 0  9996
2 35933 098.5862 290.2924 0005033 329.8060 030.2846 14.56360700510146
ITUPSAT 1
1 35935U 09051E   19123.94292351 +.00000068 +00000-0 +26845-4 0  9994
2 35935 098.5973 290.5658 0007275 322.8882 037.1811 14.55522713509951
XIWANG-1 (HOPE-1)
1 36122U 09072B   19124.05694112 -.00000037  00000-0  13094-4 0  9999
2 36122 100.0723 128.5823 0008321  91.4589 268.7488 13.16349170450870
TISAT 1
1 36799U 10035E   19123.91585427 +.00000311 +00000-0 +37527-4 0  9993
2 36799 098.1492 274.5677 0011226 231.8555 128.1651 14.91067965477749
JUGNU
1 37839U 11058B   19124.53193309  .00000312  00000-0  24411-4 0  9997
2 37839  19.9607 248.6326 0018795 188.9113 252.1156 14.12648990390868
SRMSAT
1 37841U 11058D   19124.50457494  .00000305  00000-0  22655-4 0  9995
2 37841  19.9730 304.6380 0011683  60.3402 321.3803 14.10630425390303
M-CUBED/EXP-1 PRIME
1 37855U 11061F   19123.67164578  .00000898  00000-0  53082-4 0  9994
2 37855 101.7210 355.6384 0173785 213.1901 145.8314 15.05304391409857
HORYU 2
1 38340U 12025D   19124.07859448  .00000147  00000-0  29558-4 0  9995
2 38340  98.3337 161.2891 0010107 269.1397  90.8654 14.75699792374439
STRAND 1
1 39090U 13009E   19123.56019171  .00000053  00000-0  33658-4 0  9997
2 39090  98.4931 330.2817 0010319  68.7923 291.4364 14.35080979323777
SOMP
1 39134U 13015E   19124.55716000  .00001045  00000-0  57339-4 0  9992
2 39134  64.8623 166.6531 0026783 309.8918  49.9854 15.20035572333731
BEESAT 3
1 39135U 13015F   19124.53125218  .00000775  00000-0  48412-4 0  9997
2 39135  64.8660 184.4081 0014444 322.8008  37.2116 15.17361211333398
BEESAT 2
1 39136U 13015G   19124.22180258  .00000795  00000-0  50158-4 0  9991
2 39136  64.8691 189.0878 0015333 312.0886  47.8935 15.16805325333272
CUBEBUG 1
1 39153U 13018D   19124.21210367  .00000157  00000-0  27445-4 0  9992
2 39153  97.9752 222.6011 0016560 350.9029   9.1881 14.80548096325082
ZACUBE
1 39417U 13066B   19123.96771772 +.00000189 +00000-0 +30089-4 0  9994
2 39417 097.5650 140.0340 0058924 182.3887 177.7054 14.81092351294274
TRITON 1
1 39427U 13066M   19124.53177921  .00000179  00000-0  36743-4 0  9997
2 39427  97.6728 104.7091 0112707 310.6470  48.4978 14.67819606291715
GOMX 1
1 39430U 13066Q   19124.50399091  .00000203  00000-0  45540-4 0  9995
2 39430  97.7416  84.0440 0152396  37.1319 324.0297 14.59230411290014
HUMSAT D
1 39433U 13066T   19123.88025547 +.00000581 +00000-0 +61900-4 0  9997
2 39433 097.5584 173.2462 0032461 093.7442 266.7490 14.92149447295063
CUBEBUG 2
1 39440U 13066AA  19124.52874870  .00000174  00000-0  31317-4 0  9995
2 39440  97.6021 125.6341 0079050 230.9863 128.4292 14.75832396293315
FUNCUBE 1
1 39444U 13066AE  19124.06099117  .00000227  00000-0  34230-4 0  9997
2 39444  97.5634 142.0221 0058245 176.1132 184.0546 14.81906087293171
UWE-3
1 39446U 13066AG  19123.79809442  .00000172  00000-0  29520-4 0  9993
2 39446  97.5824 131.9123 0069284 208.6908 151.0485 14.78365961292484
SPROUT
1 39770U 14029E   19124.35429172  .00000613  00000-0  74125-4 0  9995
2 39770  97.8792 227.9536 0007724 232.2289 127.8200 14.87280340268094
UNISAT 6
1 40012U 14033C   19123.85293633  .00000165  00000-0  32138-4 0  9996
2 40012  97.7643 352.4226 0056955 245.2640 114.2635 14.73957664261937
DUCHIFAT 1
1 40021U 14033M   19124.43409152  .00000238  00000-0  30210-4 0  9996
2 40021  97.9237  48.8809 0012340 193.0667 167.0233 14.90590416264806
QB50P1
1 40025U 14033R   19124.53937058  .00000242  00000-0  31754-4 0  9991
2 40025  97.9067  44.2955 0011746 202.0442 158.0271 14.88914665264607
CHUBUSAT 1
1 40300U 14070C   19124.28888881  .00000507  00000-0  25137-4 0  9991
2 40300  97.3283 199.6137 0019040 213.3005 187.9992 15.22017606249117
NUDT-PHONESAT
1 40900U 15049B   19124.43382378  .00001919  00000-0  85520-4 0  9991
2 40900  97.4393 134.2187 0012486 353.3000 112.7305 15.22595063200774
ZDPS 2A
1 40901U 15049C   19124.52527992  .00000696  00000-0  37900-4 0  9995
2 40901  97.4604 131.0040 0013864   8.2929 147.7308 15.17642425200387
ZDPS 2B
1 40902U 15049D   19124.47811042  .00001363  00000-0  71393-4 0  9998
2 40902  97.4544 128.5215 0013839   5.7082 147.0043 15.17431039200353
XW-2A
1 40903U 15049E   19124.47903721  .00001815  00000-0  45021-4 0  9996
2 40903  97.3435 166.9788 0012296 315.4056 151.8833 15.41669771203289
KAITUO 1A
1 40904U 15049F   19124.44639597  .00000187  00000-0  13397-4 0  9993
2 40904  97.4668 127.2316 0015169  11.6199 147.7338 15.15316809200149
OBJECT G
1 40905U 15049G   19124.35359869  .00000294  00000-0  19627-4 0  9996
2 40905  97.4702 124.7509 0016064   6.1360 104.0392 15.14249326200019
XW-2C
1 40906U 15049H   19124.45602358  .00000494  00000-0  29472-4 0  9993
2 40906  97.4675 127.2871 0014952   3.5266 153.6480 15.15611513200143
XW-2D
1 40907U 15049J   19124.36398359  .00000455  00000-0  27253-4 0  9999
2 40907  97.4651 126.8738 0014345   1.7808 105.3919 15.15793185200140
LILACSAT 2
1 40908U 15049K   19124.38290466  .00000234  00000-0  16551-4 0  9996
2 40908  97.4780 125.8154 0016114   6.3586  99.2846 15.13763580199955
XW-2F
1 40910U 15049M   19124.30566868  .00000776  00000-0  42385-4 0  9998
2 40910  97.4627 128.7114 0014650 355.3281 130.3840 15.17193357200135
XW-2B
1 40911U 15049N   19124.39467721  .00000822  00000-0  46529-4 0  9992
2 40911  97.4680 127.5413 0014189   2.5123 105.1822 15.15728127200044
KAITUO 1B
1 40912U 15049P   19124.47667557  .00001204  00000-0  59842-4 0  9998
2 40912  97.4506 132.4198 0014394 337.3528 177.8096 15.19494738200448
TIANWANG 1C (TW-1C)
1 40926U 15051B   19124.48678376  .00011483  00000-0  17412-3 0  9994
2 40926  97.1417 170.7360 0008964 166.3848 300.9992 15.54734783203137
